Time,TemperatureF,DewpointF,PressureIn,WindDirection,WindDirectionDegrees,WindSpeedMPH,WindSpeedGustMPH,Humidity,HourlyPrecipIn,Conditions,Clouds,dailyrainin,SoftwareType,DateUTC
2013-03-11 00:03:00,43.0,-99.9,30.27,East,100,11.0,13.0,-999,-99.99,,,-99.99,,2013-03-11 04:03:00,
2013-03-11 00:12:00,43.0,-99.9,30.27,North,-999,-999.0,-999.0,-999,-99.99,,,-99.99,,2013-03-11 04:12:00,
2013-03-11 00:22:00,43.0,-99.9,30.27,East,97,12.0,13.0,-999,-99.99,,,-99.99,,2013-03-11 04:22:00,
2013-03-11 00:33:00,43.0,-99.9,30.27,East,100,12.0,13.0,-999,-99.99,,,-99.99,,2013-03-11 04:33:00,
2013-03-11 00:43:00,42.0,-99.9,30.26,East,99,14.0,15.0,-999,-99.99,,,-99.99,,2013-03-11 04:43:00,
2013-03-11 00:53:00,42.0,-99.9,30.27,East,98,13.0,14.0,-999,-99.99,,,-99.99,,2013-03-11 04:53:00,
2013-03-11 01:04:00,42.0,-99.9,30.28,North,-999,-999.0,-999.0,-999,-99.99,,,-99.99,,2013-03-11 05:04:00,
2013-03-11 01:12:00,42.0,-99.9,30.27,North,-999,-999.0,-999.0,-999,-99.99,,,-99.99,,2013-03-11 05:12:00,
2013-03-11 01:22:00,42.0,-99.9,30.27,North,-999,-999.0,-999.0,-999,-99.99,,,-99.99,,2013-03-11 05:22:00,
2013-03-11 01:32:00,42.0,-99.9,30.27,East,95,11.0,13.0,-999,-99.99,,,-99.99,,2013-03-11 05:32:00,
2013-03-11 01:43:00,42.0,-99.9,30.26,East,96,11.0,13.0,-999,-99.99,,,-99.99,,2013-03-11 05:43:00,
2013-03-11 01:52:00,42.0,-99.9,30.26,East,98,11.0,13.0,-999,-99.99,,,-99.99,,2013-03-11 05:52:00,
2013-03-11 02:02:00,42.0,-99.9,30.25,East,96,12.0,13.0,-999,-99.99,,,-99.99,,2013-03-11 06:02:00,
2013-03-11 02:12:00,42.0,-99.9,30.26,North,-999,-999.0,-999.0,-999,-99.99,,,-99.99,,2013-03-11 06:12:00,
2013-03-11 02:22:00,42.0,-99.9,30.26,East,99,11.0,13.0,-999,-99.99,,,-99.99,,2013-03-11 06:22:00,
2013-03-11 02:33:00,42.0,-99.9,30.26,North,-999,-999.0,-999.0,-999,-99.99,,,-99.99,,2013-03-11 06:33:00,
2013-03-11 02:42:00,42.0,-99.9,30.25,East,97,10.0,12.0,-999,-99.99,,,-99.99,,2013-03-11 06:42:00,
2013-03-11 02:53:00,42.0,-99.9,30.26,East,96,10.0,10.0,-999,-99.99,,,-99.99,,2013-03-11 06:53:00,
2013-03-11 03:03:00,42.0,-99.9,30.25,East,99,9.0,11.0,-999,-99.99,,,-99.99,,2013-03-11 07:03:00,
2013-03-11 03:12:00,42.0,-99.9,30.26,East,99,8.0,9.0,-999,-99.99,,,-99.99,,2013-03-11 07:12:00,
2013-03-11 03:22:00,42.0,-99.9,30.26,North,-999,-999.0,-999.0,-999,-99.99,,,-99.99,,2013-03-11 07:22:00,
2013-03-11 03:33:00,42.0,-99.9,30.26,North,-999,-999.0,-999.0,-999,-99.99,,,-99.99,,2013-03-11 07:33:00,
2013-03-11 03:42:00,42.0,-99.9,30.25,North,-999,-999.0,-999.0,-999,-99.99,,,-99.99,,2013-03-11 07:42:00,
2013-03-11 03:52:00,42.0,-99.9,30.25,East,92,9.0,10.0,-999,-99.99,,,-99.99,,2013-03-11 07:52:00,
2013-03-11 04:02:00,42.0,-99.9,30.24,North,-999,-999.0,-999.0,-999,-99.99,,,-99.99,,2013-03-11 08:02:00,
2013-03-11 04:12:00,42.0,-99.9,30.24,North,-999,-999.0,-999.0,-999,-99.99,,,-99.99,,2013-03-11 08:12:00,
2013-03-11 04:22:00,42.0,-99.9,30.22,East,100,10.0,11.0,-999,-99.99,,,-99.99,,2013-03-11 08:22:00,
2013-03-11 04:33:00,42.0,-99.9,30.22,ESE,110,9.0,11.0,-999,-99.99,,,-99.99,,2013-03-11 08:33:00,
2013-03-11 04:42:00,42.0,-99.9,30.22,ESE,114,9.0,10.0,-999,-99.99,,,-99.99,,2013-03-11 08:42:00,
2013-03-11 04:52:00,42.0,-99.9,30.22,ESE,117,7.0,10.0,-999,-99.99,,,-99.99,,2013-03-11 08:52:00,
2013-03-11 05:02:00,42.0,-99.9,30.22,North,-999,-999.0,-999.0,-999,-99.99,,,-99.99,,2013-03-11 09:02:00,
2013-03-11 05:12:00,42.0,-99.9,30.22,North,-999,-999.0,-999.0,-999,-99.99,,,-99.99,,2013-03-11 09:12:00,
2013-03-11 05:23:00,42.0,-99.9,30.21,SE,140,12.0,13.0,-999,-99.99,,,-99.99,,2013-03-11 09:23:00,
2013-03-11 05:32:00,42.0,-99.9,30.22,SE,146,11.0,13.0,-999,-99.99,,,-99.99,,2013-03-11 09:32:00,
2013-03-11 05:42:00,42.0,-99.9,30.22,North,-999,-999.0,-999.0,-999,-99.99,,,-99.99,,2013-03-11 09:42:00,
2013-03-11 05:53:00,42.0,-99.9,30.21,SSE,155,10.0,12.0,-999,-99.99,,,-99.99,,2013-03-11 09:53:00,
2013-03-11 06:02:00,42.0,-99.9,30.21,SE,138,10.0,12.0,-999,-99.99,,,-99.99,,2013-03-11 10:02:00,
2013-03-11 06:12:00,43.0,-99.9,30.21,SE,134,10.0,12.0,-999,-99.99,,,-99.99,,2013-03-11 10:12:00,
2013-03-11 06:22:00,43.0,-99.9,30.21,SE,132,10.0,11.0,-999,-99.99,,,-99.99,,2013-03-11 10:22:00,
2013-03-11 06:33:00,43.0,-99.9,30.20,SE,128,10.0,12.0,-999,-99.99,,,-99.99,,2013-03-11 10:33:00,
2013-03-11 06:42:00,43.0,-99.9,30.20,North,-999,-999.0,-999.0,-999,-99.99,,,-99.99,,2013-03-11 10:42:00,
2013-03-11 06:53:00,43.0,-99.9,30.20,ESE,115,9.0,10.0,-999,-99.99,,,-99.99,,2013-03-11 10:53:00,
2013-03-11 07:03:00,43.0,-99.9,30.21,North,-999,-999.0,-999.0,-999,-99.99,,,-99.99,,2013-03-11 11:03:00,
2013-03-11 07:13:00,43.0,-99.9,30.20,ESE,120,9.0,12.0,-999,-99.99,,,-99.99,,2013-03-11 11:13:00,
2013-03-11 07:23:00,42.0,-99.9,30.21,ESE,122,7.0,9.0,-999,-99.99,,,-99.99,,2013-03-11 11:23:00,
2013-03-11 07:33:00,43.0,-99.9,30.20,North,-999,-999.0,-999.0,-999,-99.99,,,-99.99,,2013-03-11 11:33:00,
2013-03-11 07:43:00,43.0,-99.9,30.21,North,-999,-999.0,-999.0,-999,-99.99,,,-99.99,,2013-03-11 11:43:00,
2013-03-11 07:53:00,44.0,-99.9,30.21,North,-999,-999.0,-999.0,-999,-99.99,,,-99.99,,2013-03-11 11:53:00,
2013-03-11 08:02:00,44.0,-99.9,30.21,South,174,8.0,10.0,-999,-99.99,,,-99.99,,2013-03-11 12:02:00,
2013-03-11 08:12:00,44.0,-99.9,30.21,North,-999,-999.0,-999.0,-999,-99.99,,,-99.99,,2013-03-11 12:12:00,
2013-03-11 08:23:00,44.0,-99.9,30.20,SSE,160,8.0,10.0,-999,-99.99,,,-99.99,,2013-03-11 12:23:00,
2013-03-11 08:33:00,43.0,-99.9,30.20,North,-999,-999.0,-999.0,-999,-99.99,,,-99.99,,2013-03-11 12:33:00,
2013-03-11 08:43:00,43.0,-99.9,30.19,North,-999,-999.0,-999.0,-999,-99.99,,,-99.99,,2013-03-11 12:43:00,
2013-03-11 08:53:00,43.0,-99.9,30.19,North,-999,-999.0,-999.0,-999,-99.99,,,-99.99,,2013-03-11 12:53:00,
2013-03-11 09:03:00,43.0,-99.9,30.20,SE,137,8.0,10.0,-999,-99.99,,,-99.99,,2013-03-11 13:03:00,
2013-03-11 09:13:00,43.0,-99.9,30.20,North,-999,-999.0,-999.0,-999,-99.99,,,-99.99,,2013-03-11 13:13:00,
2013-03-11 09:23:00,43.0,-99.9,30.20,SSE,154,6.0,9.0,-999,-99.99,,,-99.99,,2013-03-11 13:23:00,
2013-03-11 09:33:00,43.0,-99.9,30.21,North,-999,-999.0,-999.0,-999,-99.99,,,-99.99,,2013-03-11 13:33:00,
2013-03-11 09:43:00,43.0,-99.9,30.22,SE,143,6.0,7.0,-999,-99.99,,,-99.99,,2013-03-11 13:43:00,
2013-03-11 09:53:00,43.0,-99.9,30.22,North,-999,-999.0,-999.0,-999,-99.99,,,-99.99,,2013-03-11 13:53:00,
2013-03-11 10:02:00,43.0,-99.9,30.21,North,-999,-999.0,-999.0,-999,-99.99,,,-99.99,,2013-03-11 14:02:00,
2013-03-11 10:13:00,44.0,-99.9,30.22,SSE,154,7.0,9.0,-999,-99.99,,,-99.99,,2013-03-11 14:13:00,
2013-03-11 10:22:00,44.0,-99.9,30.21,SE,142,8.0,9.0,-999,-99.99,,,-99.99,,2013-03-11 14:22:00,
2013-03-11 10:33:00,44.0,-99.9,30.19,SE,130,9.0,11.0,-999,-99.99,,,-99.99,,2013-03-11 14:33:00,
2013-03-11 10:43:00,44.0,-99.9,30.20,North,-999,-999.0,-999.0,-999,-99.99,,,-99.99,,2013-03-11 14:43:00,
2013-03-11 10:53:00,44.0,-99.9,30.20,SE,132,7.0,8.0,-999,-99.99,,,-99.99,,2013-03-11 14:53:00,
2013-03-11 11:03:00,44.0,-99.9,30.19,North,-999,-999.0,-999.0,-999,-99.99,,,-99.99,,2013-03-11 15:03:00,
2013-03-11 11:13:00,44.0,-99.9,30.19,North,-999,-999.0,-999.0,-999,-99.99,,,-99.99,,2013-03-11 15:13:00,
2013-03-11 11:23:00,44.0,-99.9,30.18,North,-999,-999.0,-999.0,-999,-99.99,,,-99.99,,2013-03-11 15:23:00,
2013-03-11 11:33:00,44.0,-99.9,30.18,ESE,107,10.0,11.0,-999,-99.99,,,-99.99,,2013-03-11 15:33:00,
2013-03-11 11:43:00,44.0,-99.9,30.18,ESE,108,10.0,11.0,-999,-99.99,,,-99.99,,2013-03-11 15:43:00,
2013-03-11 11:54:00,44.0,-99.9,30.17,ESE,107,10.0,11.0,-999,-99.99,,,-99.99,,2013-03-11 15:54:00,
2013-03-11 12:03:00,44.0,-99.9,30.18,ESE,105,10.0,11.0,-999,-99.99,,,-99.99,,2013-03-11 16:03:00,
2013-03-11 12:13:00,44.0,-99.9,30.18,North,-999,-999.0,-999.0,-999,-99.99,,,-99.99,,2013-03-11 16:13:00,
2013-03-11 12:23:00,45.0,-99.9,30.18,ESE,102,11.0,12.0,-999,-99.99,,,-99.99,,2013-03-11 16:23:00,
2013-03-11 12:32:00,45.0,-99.9,30.17,North,-999,-999.0,-999.0,-999,-99.99,,,-99.99,,2013-03-11 16:32:00,
2013-03-11 12:43:00,45.0,-99.9,30.17,ESE,107,12.0,13.0,-999,-99.99,,,-99.99,,2013-03-11 16:43:00,
2013-03-11 12:53:00,46.0,-99.9,30.17,ESE,104,12.0,13.0,-999,-99.99,,,-99.99,,2013-03-11 16:53:00,
2013-03-11 13:03:00,46.0,-99.9,30.17,North,-999,-999.0,-999.0,-999,-99.99,,,-99.99,,2013-03-11 17:03:00,
2013-03-11 13:17:00,46.0,-99.9,30.16,North,-999,-999.0,-999.0,-999,-99.99,,,-99.99,,2013-03-11 17:17:00,
2013-03-11 13:29:00,46.0,-99.9,30.16,East,98,14.0,15.0,-999,-99.99,,,-99.99,,2013-03-11 17:29:00,
2013-03-11 13:38:00,46.0,-99.9,30.15,North,-999,-999.0,-999.0,-999,-99.99,,,-99.99,,2013-03-11 17:38:00,
2013-03-11 13:53:00,46.0,-99.9,30.14,ESE,113,15.0,16.0,-999,-99.99,,,-99.99,,2013-03-11 17:53:00,
2013-03-11 14:03:00,47.0,-99.9,30.13,North,-999,-999.0,-999.0,-999,-99.99,,,-99.99,,2013-03-11 18:03:00,
2013-03-11 14:12:00,48.0,-99.9,30.13,ESE,116,14.0,16.0,-999,-99.99,,,-99.99,,2013-03-11 18:12:00,
2013-03-11 14:23:00,48.0,-99.9,30.13,ESE,116,13.0,14.0,-999,-99.99,,,-99.99,,2013-03-11 18:23:00,
2013-03-11 14:33:00,48.0,-99.9,30.13,ESE,110,12.0,14.0,-999,-99.99,,,-99.99,,2013-03-11 18:33:00,
2013-03-11 14:43:00,49.0,-99.9,30.12,ESE,115,12.0,13.0,-999,-99.99,,,-99.99,,2013-03-11 18:43:00,
2013-03-11 14:53:00,49.0,-99.9,30.11,ESE,106,12.0,13.0,-999,-99.99,,,-99.99,,2013-03-11 18:53:00,
2013-03-11 15:02:00,49.0,-99.9,30.11,ESE,104,12.0,13.0,-999,-99.99,,,-99.99,,2013-03-11 19:02:00,
2013-03-11 15:13:00,49.0,-99.9,30.10,East,95,11.0,12.0,-999,-99.99,,,-99.99,,2013-03-11 19:13:00,
2013-03-11 15:23:00,49.0,-99.9,30.10,East,98,11.0,12.0,-999,-99.99,,,-99.99,,2013-03-11 19:23:00,
2013-03-11 15:33:00,49.0,-99.9,30.09,North,-999,-999.0,-999.0,-999,-99.99,,,-99.99,,2013-03-11 19:33:00,
2013-03-11 15:43:00,50.0,-99.9,30.09,ESE,107,13.0,14.0,-999,-99.99,,,-99.99,,2013-03-11 19:43:00,
2013-03-11 15:53:00,49.0,-99.9,30.09,ESE,112,13.0,15.0,-999,-99.99,,,-99.99,,2013-03-11 19:53:00,
2013-03-11 16:03:00,49.0,-99.9,30.09,ESE,113,13.0,14.0,-999,-99.99,,,-99.99,,2013-03-11 20:03:00,
2013-03-11 16:12:00,49.0,-99.9,30.08,ESE,116,12.0,14.0,-999,-99.99,,,-99.99,,2013-03-11 20:12:00,
2013-03-11 16:23:00,50.0,-99.9,30.08,North,-999,-999.0,-999.0,-999,-99.99,,,-99.99,,2013-03-11 20:23:00,
2013-03-11 16:33:00,50.0,-99.9,30.08,ESE,113,11.0,13.0,-999,-99.99,,,-99.99,,2013-03-11 20:33:00,
2013-03-11 16:44:00,51.0,-99.9,30.07,North,-999,-999.0,-999.0,-999,-99.99,,,-99.99,,2013-03-11 20:44:00,
2013-03-11 16:53:00,51.0,-99.9,30.07,ESE,109,11.0,12.0,-999,-99.99,,,-99.99,,2013-03-11 20:53:00,
2013-03-11 17:03:00,50.0,-99.9,30.06,North,-999,-999.0,-999.0,-999,-99.99,,,-99.99,,2013-03-11 21:03:00,
2013-03-11 17:13:00,53.0,-99.9,30.06,SE,141,14.0,16.0,-999,-99.99,,,-99.99,,2013-03-11 21:13:00,
2013-03-11 17:23:00,53.0,-99.9,30.05,SE,145,15.0,19.0,-999,-99.99,,,-99.99,,2013-03-11 21:23:00,
2013-03-11 17:33:00,54.0,-99.9,30.05,North,-999,-999.0,-999.0,-999,-99.99,,,-99.99,,2013-03-11 21:33:00,
2013-03-11 17:44:00,55.0,-99.9,30.04,SSE,149,17.0,21.0,-999,-99.99,,,-99.99,,2013-03-11 21:44:00,
2013-03-11 17:54:00,55.0,-99.9,30.03,SE,140,17.0,19.0,-999,-99.99,,,-99.99,,2013-03-11 21:54:00,
2013-03-11 18:03:00,55.0,-99.9,30.03,North,-999,-999.0,-999.0,-999,-99.99,,,-99.99,,2013-03-11 22:03:00,
2013-03-11 18:13:00,54.0,-99.9,30.02,SE,125,15.0,21.0,-999,-99.99,,,-99.99,,2013-03-11 22:13:00,
2013-03-11 18:23:00,52.0,-99.9,30.01,ESE,119,14.0,17.0,-999,-99.99,,,-99.99,,2013-03-11 22:23:00,
2013-03-11 18:33:00,54.0,-99.9,30.01,SE,128,13.0,15.0,-999,-99.99,,,-99.99,,2013-03-11 22:33:00,
2013-03-11 18:43:00,52.0,-99.9,30.02,North,-999,-999.0,-999.0,-999,-99.99,,,-99.99,,2013-03-11 22:43:00,
2013-03-11 18:53:00,51.0,-99.9,30.02,SE,131,14.0,15.0,-999,-99.99,,,-99.99,,2013-03-11 22:53:00,
2013-03-11 19:03:00,53.0,-99.9,30.03,North,-999,-999.0,-999.0,-999,-99.99,,,-99.99,,2013-03-11 23:03:00,
2013-03-11 19:12:00,54.0,-99.9,30.04,North,-999,-999.0,-999.0,-999,-99.99,,,-99.99,,2013-03-11 23:12:00,
2013-03-11 19:22:00,52.0,-99.9,30.04,North,-999,-999.0,-999.0,-999,-99.99,,,-99.99,,2013-03-11 23:22:00,
2013-03-11 19:33:00,54.0,-99.9,30.04,North,-999,-999.0,-999.0,-999,-99.99,,,-99.99,,2013-03-11 23:33:00,
2013-03-11 19:43:00,54.0,-99.9,30.04,SE,132,12.0,14.0,-999,-99.99,,,-99.99,,2013-03-11 23:43:00,
2013-03-11 19:54:00,53.0,-99.9,30.03,SE,134,15.0,16.0,-999,-99.99,,,-99.99,,2013-03-11 23:54:00,
2013-03-11 20:02:00,53.0,-99.9,30.03,SE,134,15.0,16.0,-999,-99.99,,,-99.99,,2013-03-12 00:02:00,
2013-03-11 20:13:00,54.0,-99.9,30.00,North,-999,-999.0,-999.0,-999,-99.99,,,-99.99,,2013-03-12 00:13:00,
2013-03-11 20:23:00,54.0,-99.9,30.00,SE,130,19.0,21.0,-999,-99.99,,,-99.99,,2013-03-12 00:23:00,
2013-03-11 20:33:00,51.0,-99.9,30.00,North,-999,-999.0,-999.0,-999,-99.99,,,-99.99,,2013-03-12 00:33:00,
2013-03-11 20:43:00,53.0,-99.9,29.99,North,-999,-999.0,-999.0,-999,-99.99,,,-99.99,,2013-03-12 00:43:00,
2013-03-11 20:54:00,54.0,-99.9,29.99,SE,134,21.0,22.0,-999,-99.99,,,-99.99,,2013-03-12 00:54:00,
2013-03-11 21:02:00,53.0,-99.9,29.99,SE,137,20.0,22.0,-999,-99.99,,,-99.99,,2013-03-12 01:02:00,
2013-03-11 21:12:00,54.0,-99.9,30.00,North,-999,-999.0,-999.0,-999,-99.99,,,-99.99,,2013-03-12 01:12:00,
2013-03-11 21:22:00,54.0,-99.9,30.01,SE,140,19.0,22.0,-999,-99.99,,,-99.99,,2013-03-12 01:22:00,
2013-03-11 21:33:00,54.0,-99.9,30.01,North,-999,-999.0,-999.0,-999,-99.99,,,-99.99,,2013-03-12 01:33:00,
2013-03-11 21:42:00,54.0,-99.9,30.00,SE,137,19.0,22.0,-999,-99.99,,,-99.99,,2013-03-12 01:42:00,
2013-03-11 21:53:00,54.0,-99.9,30.00,SE,136,19.0,22.0,-999,-99.99,,,-99.99,,2013-03-12 01:53:00,
2013-03-11 22:02:00,54.0,-99.9,30.01,North,-999,-999.0,-999.0,-999,-99.99,,,-99.99,,2013-03-12 02:02:00,
2013-03-11 22:13:00,55.0,-99.9,30.01,SE,141,19.0,20.0,-999,-99.99,,,-99.99,,2013-03-12 02:13:00,
2013-03-11 22:22:00,54.0,-99.9,30.01,SE,144,18.0,19.0,-999,-99.99,,,-99.99,,2013-03-12 02:22:00,
2013-03-11 22:32:00,53.0,-99.9,30.01,SE,143,18.0,19.0,-999,-99.99,,,-99.99,,2013-03-12 02:32:00,
2013-03-11 22:43:00,53.0,-99.9,30.01,SE,143,18.0,19.0,-999,-99.99,,,-99.99,,2013-03-12 02:43:00,
2013-03-11 22:52:00,53.0,-99.9,30.01,SE,142,17.0,18.0,-999,-99.99,,,-99.99,,2013-03-12 02:52:00,
2013-03-11 23:02:00,53.0,-99.9,30.01,North,-999,-999.0,-999.0,-999,-99.99,,,-99.99,,2013-03-12 03:02:00,
2013-03-11 23:12:00,53.0,-99.9,30.00,SSE,147,20.0,23.0,-999,-99.99,,,-99.99,,2013-03-12 03:12:00,
2013-03-11 23:22:00,53.0,-99.9,30.01,SSE,151,24.0,28.0,-999,-99.99,,,-99.99,,2013-03-12 03:22:00,
2013-03-11 23:32:00,54.0,-99.9,29.99,SSE,154,24.0,27.0,-999,-99.99,,,-99.99,,2013-03-12 03:32:00,
2013-03-11 23:43:00,54.0,-99.9,29.99,SSE,152,25.0,31.0,-999,-99.99,,,-99.99,,2013-03-12 03:43:00,
2013-03-11 23:53:00,53.0,-99.9,29.98,SE,146,24.0,26.0,-999,-99.99,,,-99.99,,2013-03-12 03:53:00,